Regional Weather Roundup
Issued by NWS Newport/Morehead, NC

Current Version | Previous Version | Graphics & Text | Print | Product List | Glossary Off
Versions: 1 2 3 4 5 6 7 8 9 10 11 12 13 14 15 16 17 18 19 20 21 22 23 24 25 26 27 28 29 30 31 32 33 34 35 36 37 38 39 40 41 42 43 44 45 46 47 48 49 50

000
ASUS42 KMHX 111813
RWRMHX
WEATHER ROUNDUP FOR EASTERN NORTH CAROLINA
NATIONAL WEATHER SERVICE NEWPORT/MOREHEAD CITY NC
100 PM EST THU FEB 11 2016

NOTE: "FAIR" INDICATES FEW OR NO CLOUDS BELOW 12,000 FEET
WITH NO SIGNIFICANT WEATHER AND/OR OBSTRUCTIONS TO VISIBILITY

NCZ015>017-031-032-045>047-102-103-111900-
NORTH COAST

CITY           SKY/WX    TMP DP  RH WIND       PRES   REMARKS
EDENTON        SUNNY     36   7  29 NW12G21   30.16F
ELIZABETH CITY SUNNY     34   8  33 W17G24    30.14F
KITTY HAWK     CLEAR     35   8  33 W12G20    30.13S
MANTEO         SUNNY     33  11  40 NW14      30.15F

$$

NCZ045>047-081-094-103-104-111900-
CENTRAL COAST

CITY           SKY/WX    TMP DP  RH WIND       PRES   REMARKS
FRISCO         SUNNY     38   9  30 NW15      30.15F
SWANQUARTER      N/A     36 N/A N/A W10G23    30.12F

$$

NCZ095-097-098-100-101-111900-
SOUTHERN COAST

CITY           SKY/WX    TMP DP  RH WIND       PRES   REMARKS
BEAUFORT       SUNNY     40   9  28 NW15G24   30.16F
CEDAR ISLAND     N/A     37 N/A N/A W10G21    30.21S
JACKSONVILLE   SUNNY     40   9  28 W13G22    30.18F
PINEY ISLAND   CLEAR    N/A N/A N/A W15G25    30.16F
WILMINGTON     SUNNY     43  12  28 NW7       30.20F


$$

NCZ011>013-027>030-043-044-078>080-089-090>093-098-111900-
COASTAL PLAIN

CITY           SKY/WX    TMP DP  RH WIND       PRES   REMARKS
AHOSKIE        SUNNY     33   4  29 NW7       30.16F
CLINTON        SUNNY     39  13  33 W8        30.19F
ELIZABETHTOWN  SUNNY     40  11  30 NW5       30.20F
GOLDSBORO      SUNNY     39   7  26 W13       30.16F
GREENVILLE     SUNNY     36   9  32 W6        30.18F
HAVELOCK       SUNNY     40   7  25 W17       30.18F
KENANSVILLE    SUNNY     37   9  31 NW8G18    30.20F
KINSTON        SUNNY     39   5  24 W13G20    30.18F
NEW BERN       SUNNY     39   7  26 W16       30.19F
RICHLANDS      SUNNY     39   9  28 W9        30.19F
ROCKY MOUNT    SUNNY     35   9  33 W14G22    30.17F
WASHINGTON     SUNNY     36   8  30 NW13G23   30.17F
WHITEVILLE     SUNNY     42  14  32 W6        30.20F

$$

AMZ130-135-150-152-154-156-158-170-250-252-270-ANZ085-086-088-633-658-670-111900-
MARINE OBSERVATIONS

STATION/POSITION TIME  TEMP    WIND        PRES    WAVE   SWELL
                       AIR SEA DIR/SP/G            HT/PER HT/PER
                 (UTC) (F)     (DEG/KT/KT) (MB)    (FT/S) (FT/S)
CHESAPEAKE LIGHT 1800   30     310/ 23/ 25 1020.5
64 E VA BEACH    1750   30 49  300/ 21/ 27 1018.7    8/ 6   2/11
DUCK             1700   30     290/ 16/ 20 1020.2
2 E DUCK         1711      44                N/A     2/12   2/12
OREGON INLET     1700   31 40  300/ 13/ 20 1020.7
13E OREGON INLT  1800      46                N/A     5/ 6   2/12
HATTERAS CG      1700   34 44  280/ 21/ 25 1020.9
DIAMOND BUOY     1750   37 65  290/ 19/ 25 1021.2    6/ 5   2/10
CAPE LOOKOUT     NOT AVBL
BEAUFORT LAB     1700   36 45  290/ 11/ 18 1021.6
30 SE NEW RVR IN 1708   37 58              1023.2
30 SE NEW RVR IN 1725      59                N/A     5/ 9   2/11
27 SE WRIGHTSVLE 1708   41 60  300/ 14/ 19 1022.7
5 SE WRIGHTSVLE  1708   38 50  280/  8/ 14 1023.7
225 S CAPE HAT   1750   54 68  300/ 21/ 29   N/A    12/ 9   8/ 9
41 SE CHARLESTON 1750   44 62  280/ 10/ 14 1023.7    4/ 7   3/ 7

$$



USA.gov is the U.S. government's official web portal to all federal, state and local government web resources and services.